THYB8K LTBH-LYTV

Flight info

Callsign THYB8K
Flight time 1h 9m
Altitude 32000
Route LMO N128 PEREN G12 TSL N130 MAVAR Y400 RETRA
Aircraft A320/M-SDE3FGHIRWY/LB1

Departure

Time 2026-04-29 08:49
Airport Çanakkale Airport (LTBH)

Arrival

Time 2026-04-29 09:59
Airport Tivat Airport (LYTV)
Time Latitude Longitude Altitude Speed Heading
2026-04-29 08:11 40.13951 26.42548 36 ft 0 kts 62°
2026-04-29 08:46 40.13949 26.42606 36 ft 10 kts 102°
2026-04-29 08:46 40.13921 26.42678 36 ft 8 kts 122°
2026-04-29 08:46 40.13892 26.42738 36 ft 8 kts 123°
2026-04-29 08:46 40.13889 26.42820 36 ft 16 kts 65°
2026-04-29 08:47 40.14026 26.42990 38 ft 38 kts 41°
2026-04-29 08:47 40.14217 26.43194 38 ft 26 kts 20°
2026-04-29 08:47 40.14331 26.43252 38 ft 14 kts 75°
2026-04-29 08:47 40.14279 26.43279 37 ft 7 kts 220°
2026-04-29 08:48 40.14278 26.43278 38 ft 0 kts 221°
2026-04-29 08:48 40.14149 26.43133 38 ft 70 kts 220°
2026-04-29 08:49 40.13563 26.42465 34 ft 154 kts 223°
2026-04-29 08:49 40.12619 26.41443 375 ft 183 kts 212°
2026-04-29 08:49 40.11618 26.40375 1339 ft 188 kts 220°
2026-04-29 08:49 40.10730 26.39136 2159 ft 192 kts 244°
2026-04-29 08:50 40.10361 26.37428 2742 ft 202 kts 259°
2026-04-29 08:50 40.10117 26.35535 3252 ft 221 kts 262°
2026-04-29 08:50 40.09862 26.33473 3773 ft 239 kts 262°
2026-04-29 08:50 40.09571 26.31254 4378 ft 256 kts 262°
2026-04-29 08:51 40.09238 26.28889 5173 ft 270 kts 262°
2026-04-29 08:51 40.08874 26.26461 6159 ft 273 kts 262°
2026-04-29 08:51 40.08494 26.24023 7183 ft 275 kts 261°
2026-04-29 08:51 40.08103 26.21560 8130 ft 279 kts 261°
2026-04-29 08:52 40.07703 26.19060 9093 ft 283 kts 261°
2026-04-29 08:52 40.07297 26.16535 10042 ft 286 kts 261°
2026-04-29 08:52 40.06879 26.13936 10609 ft 301 kts 260°
2026-04-29 08:52 40.06447 26.11237 11190 ft 313 kts 260°
2026-04-29 08:53 40.05995 26.08433 11983 ft 317 kts 259°
2026-04-29 08:53 40.05538 26.05610 12819 ft 319 kts 259°
2026-04-29 08:53 40.05074 26.02752 13658 ft 322 kts 259°
2026-04-29 08:53 40.04607 25.99878 14408 ft 325 kts 259°
2026-04-29 08:54 40.04134 25.96975 15126 ft 328 kts 259°
2026-04-29 08:54 40.03656 25.94048 15842 ft 331 kts 259°
2026-04-29 08:54 40.03174 25.91105 16567 ft 333 kts 259°
2026-04-29 08:54 40.02689 25.88136 17291 ft 335 kts 260°
2026-04-29 08:55 40.02200 25.85153 18003 ft 337 kts 260°
2026-04-29 08:55 40.01704 25.82147 18669 ft 340 kts 260°
2026-04-29 08:55 40.01205 25.79121 19259 ft 343 kts 260°
2026-04-29 08:55 40.00706 25.76098 19837 ft 346 kts 260°
2026-04-29 08:56 40.00199 25.73019 20420 ft 349 kts 260°
2026-04-29 08:56 39.99688 25.69912 21001 ft 352 kts 260°
2026-04-29 08:56 39.99173 25.66781 21578 ft 355 kts 260°
2026-04-29 08:56 39.98653 25.63625 22147 ft 358 kts 260°
2026-04-29 08:57 39.98125 25.60441 22699 ft 361 kts 260°
2026-04-29 08:57 39.97591 25.57229 23268 ft 364 kts 260°
2026-04-29 08:57 39.97052 25.53991 23805 ft 367 kts 260°
2026-04-29 08:57 39.96504 25.50724 24274 ft 370 kts 259°
2026-04-29 08:58 39.95951 25.47433 24763 ft 373 kts 260°
2026-04-29 08:58 39.95395 25.44117 25245 ft 375 kts 260°
2026-04-29 08:58 39.94838 25.40787 25716 ft 378 kts 260°
2026-04-29 08:58 39.94276 25.37430 26181 ft 380 kts 260°
2026-04-29 08:59 39.93713 25.34096 26633 ft 382 kts 260°
2026-04-29 08:59 39.93141 25.30696 27073 ft 384 kts 261°
2026-04-29 08:59 39.92880 25.27242 27514 ft 384 kts 272°
2026-04-29 08:59 39.93177 25.23793 27956 ft 384 kts 284°
2026-04-29 09:00 39.94012 25.20488 28367 ft 385 kts 295°
2026-04-29 09:00 39.95349 25.17460 28770 ft 387 kts 305°
2026-04-29 09:00 39.96922 25.14588 29146 ft 390 kts 305°
2026-04-29 09:00 39.98498 25.11693 29546 ft 392 kts 305°
2026-04-29 09:01 40.00077 25.08781 29948 ft 394 kts 304°
2026-04-29 09:01 40.01660 25.05853 30320 ft 395 kts 304°
2026-04-29 09:01 40.03238 25.02931 30803 ft 393 kts 304°
2026-04-29 09:01 40.04805 25.00029 31302 ft 390 kts 304°
2026-04-29 09:02 40.06363 24.97144 31812 ft 387 kts 304°
2026-04-29 09:02 40.07897 24.94298 32093 ft 391 kts 304°
2026-04-29 09:02 40.09477 24.91359 32154 ft 399 kts 304°
2026-04-29 09:03 40.12747 24.85283 32162 ft 416 kts 304°
2026-04-29 09:03 40.16088 24.79078 32160 ft 418 kts 304°
2026-04-29 09:04 40.19432 24.72852 32165 ft 418 kts 304°
2026-04-29 09:04 40.22776 24.66596 32166 ft 425 kts 304°
2026-04-29 09:05 40.26201 24.60155 32165 ft 434 kts 304°
2026-04-29 09:05 40.29658 24.53655 32160 ft 435 kts 304°
2026-04-29 09:06 40.32536 24.48251 32164 ft 435 kts 304°
2026-04-29 09:06 40.35999 24.41755 32160 ft 435 kts 304°
2026-04-29 09:07 40.39454 24.35242 32162 ft 435 kts 304°
2026-04-29 09:07 40.42902 24.28719 32170 ft 435 kts 304°
2026-04-29 09:08 40.46343 24.22187 32163 ft 435 kts 304°
2026-04-29 09:08 40.49774 24.15651 32162 ft 435 kts 304°
2026-04-29 09:09 40.53212 24.09117 32170 ft 434 kts 304°
2026-04-29 09:09 40.56619 24.02541 32163 ft 434 kts 299°
2026-04-29 09:10 40.58598 23.95102 32148 ft 434 kts 278°
2026-04-29 09:10 40.58337 23.87262 32158 ft 421 kts 262°
2026-04-29 09:11 40.57278 23.79688 32149 ft 421 kts 262°
2026-04-29 09:11 40.56229 23.72162 32148 ft 421 kts 262°
2026-04-29 09:12 40.55158 23.64587 32157 ft 423 kts 262°
2026-04-29 09:12 40.54065 23.56856 32152 ft 436 kts 262°
2026-04-29 09:13 40.52943 23.48976 32144 ft 439 kts 261°
2026-04-29 09:13 40.51808 23.41083 32141 ft 439 kts 261°
2026-04-29 09:14 40.50673 23.33243 32138 ft 439 kts 261°
2026-04-29 09:14 40.49529 23.25354 32138 ft 439 kts 261°
2026-04-29 09:15 40.48380 23.17463 32140 ft 440 kts 261°
2026-04-29 09:15 40.47221 23.09580 32143 ft 440 kts 261°
2026-04-29 09:16 40.46844 23.01640 32131 ft 436 kts 279°
2026-04-29 09:16 40.48769 22.94157 32127 ft 435 kts 300°
2026-04-29 09:17 40.52355 22.87752 32132 ft 436 kts 307°
2026-04-29 09:17 40.56045 22.81436 32140 ft 435 kts 306°
2026-04-29 09:18 40.59725 22.75105 32140 ft 435 kts 306°
2026-04-29 09:18 40.63377 22.68808 32142 ft 435 kts 306°
2026-04-29 09:19 40.67053 22.62480 32138 ft 435 kts 306°
2026-04-29 09:19 40.70734 22.56142 32137 ft 435 kts 306°
2026-04-29 09:20 40.74401 22.49804 32138 ft 434 kts 306°
2026-04-29 09:20 40.78060 22.43461 32137 ft 434 kts 306°
2026-04-29 09:21 40.81715 22.37115 32136 ft 434 kts 306°
2026-04-29 09:21 40.85370 22.30757 32133 ft 434 kts 306°
2026-04-29 09:22 40.88994 22.24439 32132 ft 434 kts 306°
2026-04-29 09:22 40.92636 22.18076 32131 ft 434 kts 306°
2026-04-29 09:23 40.96276 22.11706 32132 ft 434 kts 306°
2026-04-29 09:23 40.99907 22.05330 32130 ft 433 kts 306°
2026-04-29 09:24 41.03529 21.98955 32125 ft 433 kts 306°
2026-04-29 09:24 41.07150 21.92567 32120 ft 433 kts 305°
2026-04-29 09:25 41.10264 21.85745 32119 ft 432 kts 300°
2026-04-29 09:25 41.13270 21.78858 32120 ft 431 kts 300°
2026-04-29 09:26 41.16255 21.72014 32110 ft 431 kts 300°
2026-04-29 09:26 41.19260 21.65109 32102 ft 432 kts 300°
2026-04-29 09:27 41.22259 21.58200 32104 ft 431 kts 299°
2026-04-29 09:27 41.25240 21.51286 32104 ft 431 kts 299°
2026-04-29 09:28 41.28216 21.44363 32109 ft 431 kts 299°
2026-04-29 09:28 41.31196 21.37443 32109 ft 431 kts 299°
2026-04-29 09:29 41.34173 21.30520 32110 ft 431 kts 299°
2026-04-29 09:29 41.37075 21.23765 32102 ft 413 kts 299°
2026-04-29 09:29 41.38495 21.20444 32102 ft 412 kts 299°
2026-04-29 09:30 41.41323 21.13796 32097 ft 411 kts 299°
2026-04-29 09:30 41.44150 21.07162 32109 ft 412 kts 299°
2026-04-29 09:31 41.46986 21.00516 32109 ft 412 kts 299°
2026-04-29 09:31 41.49792 20.93910 32102 ft 412 kts 299°
2026-04-29 09:32 41.52601 20.87260 32107 ft 411 kts 299°
2026-04-29 09:32 41.55404 20.80604 32115 ft 411 kts 299°
2026-04-29 09:33 41.58207 20.73947 32117 ft 411 kts 299°
2026-04-29 09:33 41.61009 20.67302 32116 ft 410 kts 299°
2026-04-29 09:34 41.63803 20.60645 32117 ft 411 kts 299°
2026-04-29 09:34 41.65216 20.57267 31909 ft 420 kts 298°
2026-04-29 09:34 41.66646 20.53844 31658 ft 422 kts 298°
2026-04-29 09:35 41.68114 20.50440 31401 ft 423 kts 300°
2026-04-29 09:35 41.69667 20.47092 31157 ft 424 kts 302°
2026-04-29 09:35 41.71269 20.43777 30911 ft 425 kts 302°
2026-04-29 09:35 41.72892 20.40463 30668 ft 426 kts 302°
2026-04-29 09:36 41.74515 20.37139 30422 ft 427 kts 302°
2026-04-29 09:36 41.76108 20.33842 30182 ft 427 kts 302°
2026-04-29 09:36 41.77725 20.30461 29895 ft 424 kts 302°
2026-04-29 09:36 41.79284 20.27172 29612 ft 423 kts 301°
2026-04-29 09:37 41.80855 20.23834 29331 ft 421 kts 302°
2026-04-29 09:37 41.82411 20.20521 29063 ft 419 kts 302°
2026-04-29 09:37 41.83963 20.17214 28780 ft 417 kts 301°
2026-04-29 09:37 41.85498 20.13942 28183 ft 411 kts 301°
2026-04-29 09:38 41.87009 20.10723 27537 ft 405 kts 301°
2026-04-29 09:38 41.88504 20.07545 26910 ft 400 kts 301°
2026-04-29 09:38 41.89976 20.04410 26286 ft 395 kts 301°
2026-04-29 09:38 41.91433 20.01308 25679 ft 390 kts 301°
2026-04-29 09:39 41.92874 19.98233 25082 ft 386 kts 301°
2026-04-29 09:39 41.94296 19.95190 24487 ft 382 kts 301°
2026-04-29 09:39 41.95699 19.92182 23908 ft 378 kts 301°
2026-04-29 09:39 41.97072 19.89240 23370 ft 373 kts 301°
2026-04-29 09:40 41.98403 19.86390 23238 ft 346 kts 301°
2026-04-29 09:40 41.99641 19.83740 22897 ft 325 kts 301°
2026-04-29 09:40 42.00824 19.81194 22188 ft 318 kts 301°
2026-04-29 09:40 42.01985 19.78690 21475 ft 314 kts 301°
2026-04-29 09:41 42.03145 19.76191 21043 ft 314 kts 301°
2026-04-29 09:41 42.04300 19.73703 20626 ft 313 kts 301°
2026-04-29 09:41 42.05454 19.71216 20220 ft 313 kts 301°
2026-04-29 09:41 42.06605 19.68735 19819 ft 311 kts 301°
2026-04-29 09:42 42.07749 19.66269 19414 ft 309 kts 301°
2026-04-29 09:42 42.08888 19.63819 19010 ft 308 kts 301°
2026-04-29 09:42 42.10003 19.61411 18618 ft 307 kts 301°
2026-04-29 09:42 42.11128 19.58978 18177 ft 306 kts 301°
2026-04-29 09:43 42.12250 19.56551 17744 ft 304 kts 301°
2026-04-29 09:43 42.13366 19.54134 17313 ft 303 kts 301°
2026-04-29 09:43 42.14478 19.51723 16831 ft 304 kts 301°
2026-04-29 09:43 42.15592 19.49301 16379 ft 304 kts 301°
2026-04-29 09:44 42.16704 19.46881 15920 ft 304 kts 301°
2026-04-29 09:44 42.17815 19.44454 15493 ft 304 kts 301°
2026-04-29 09:44 42.18920 19.42047 15243 ft 299 kts 301°
2026-04-29 09:44 42.20027 19.39633 14720 ft 302 kts 301°
2026-04-29 09:45 42.21116 19.37310 14594 ft 286 kts 305°
2026-04-29 09:45 42.22363 19.35296 14393 ft 273 kts 314°
2026-04-29 09:45 42.23783 19.33635 13952 ft 269 kts 323°
2026-04-29 09:45 42.25351 19.32326 13385 ft 269 kts 332°
2026-04-29 09:46 42.27072 19.31341 12846 ft 268 kts 338°
2026-04-29 09:46 42.28811 19.30471 12331 ft 265 kts 337°
2026-04-29 09:46 42.30483 19.29462 11761 ft 261 kts 325°
2026-04-29 09:46 42.31866 19.27889 11127 ft 262 kts 309°
2026-04-29 09:47 42.32841 19.25829 10596 ft 258 kts 292°
2026-04-29 09:47 42.33335 19.23512 10379 ft 257 kts 278°
2026-04-29 09:47 42.33343 19.21096 10228 ft 258 kts 263°
2026-04-29 09:47 42.32847 19.18765 10095 ft 260 kts 246°
2026-04-29 09:48 42.31867 19.16710 9883 ft 263 kts 230°
2026-04-29 09:48 42.30552 19.14957 9378 ft 267 kts 225°
2026-04-29 09:48 42.29201 19.13220 8926 ft 269 kts 225°
2026-04-29 09:48 42.27866 19.11496 8484 ft 261 kts 225°
2026-04-29 09:49 42.26578 19.09834 8069 ft 252 kts 226°
2026-04-29 09:49 42.25335 19.08227 7655 ft 243 kts 225°
2026-04-29 09:49 42.24130 19.06670 7266 ft 239 kts 225°
2026-04-29 09:49 42.22919 19.05109 6871 ft 243 kts 225°
2026-04-29 09:50 42.21701 19.03538 6460 ft 242 kts 224°
2026-04-29 09:50 42.20506 19.01991 6068 ft 235 kts 224°
2026-04-29 09:50 42.19359 19.00507 5810 ft 227 kts 224°
2026-04-29 09:50 42.18251 18.99083 5630 ft 214 kts 224°
2026-04-29 09:51 42.17204 18.97741 5443 ft 201 kts 224°
2026-04-29 09:51 42.16199 18.96446 5317 ft 196 kts 224°
2026-04-29 09:51 42.15400 18.95021 5105 ft 187 kts 245°
2026-04-29 09:51 42.15117 18.93360 4939 ft 180 kts 268°
2026-04-29 09:52 42.15295 18.91683 4774 ft 181 kts 281°
2026-04-29 09:52 42.15549 18.90037 4600 ft 181 kts 280°
2026-04-29 09:52 42.15804 18.88370 4431 ft 182 kts 282°
2026-04-29 09:52 42.16345 18.86830 4259 ft 184 kts 307°
2026-04-29 09:53 42.17307 18.85694 4095 ft 186 kts 330°
2026-04-29 09:53 42.18506 18.85037 3940 ft 186 kts 339°
2026-04-29 09:53 42.19720 18.84423 3778 ft 186 kts 339°
2026-04-29 09:53 42.20912 18.83812 3602 ft 177 kts 339°
2026-04-29 09:54 42.21652 18.83431 3511 ft 167 kts 339°
2026-04-29 09:54 42.22690 18.82895 3383 ft 150 kts 339°
2026-04-29 09:54 42.23659 18.82392 3247 ft 149 kts 339°
2026-04-29 09:54 42.24623 18.81891 3103 ft 148 kts 339°
2026-04-29 09:55 42.25590 18.81391 2951 ft 149 kts 339°
2026-04-29 09:55 42.26553 18.80893 2835 ft 148 kts 339°
2026-04-29 09:55 42.27513 18.80397 2703 ft 147 kts 339°
2026-04-29 09:55 42.28480 18.79899 2617 ft 151 kts 336°
2026-04-29 09:56 42.29472 18.79386 2332 ft 152 kts 339°
2026-04-29 09:56 42.30438 18.78879 2097 ft 145 kts 334°
2026-04-29 09:56 42.31382 18.78387 1900 ft 146 kts 339°
2026-04-29 09:56 42.32320 18.77901 1714 ft 143 kts 338°
2026-04-29 09:57 42.33232 18.77428 1515 ft 141 kts 341°
2026-04-29 09:57 42.34166 18.77038 1323 ft 141 kts 346°
2026-04-29 09:57 42.35127 18.76733 1145 ft 142 kts 346°
2026-04-29 09:57 42.36067 18.76346 933 ft 141 kts 340°
2026-04-29 09:58 42.36963 18.75831 726 ft 139 kts 332°
2026-04-29 09:58 42.37803 18.75177 537 ft 139 kts 329°
2026-04-29 09:58 42.38607 18.74456 337 ft 139 kts 324°
2026-04-29 09:58 42.39354 18.73625 138 ft 139 kts 320°
2026-04-29 09:59 42.40072 18.72792 22 ft 122 kts 320°
2026-04-29 09:59 42.40490 18.72313 20 ft 45 kts 322°
2026-04-29 09:59 42.40668 18.72105 18 ft 30 kts 317°
2026-04-29 09:59 42.40841 18.71889 19 ft 37 kts 317°
2026-04-29 10:00 42.41029 18.71661 19 ft 36 kts 319°
2026-04-29 10:00 42.41198 18.71466 16 ft 19 kts 320°
2026-04-29 10:00 42.41281 18.71373 16 ft 9 kts 328°
2026-04-29 10:00 42.41336 18.71387 16 ft 9 kts 39°
2026-04-29 10:01 42.41347 18.71453 17 ft 6 kts 110°
2026-04-29 10:01 42.41299 18.71526 17 ft 13 kts 138°
2026-04-29 10:01 42.41242 18.71596 18 ft 8 kts 137°
2026-04-29 10:01 42.41208 18.71637 18 ft 6 kts 139°
2026-04-29 10:02 42.41178 18.71671 18 ft 5 kts 139°
2026-04-29 10:02 42.41152 18.71701 18 ft 5 kts 140°
2026-04-29 10:02 42.41129 18.71726 19 ft 4 kts 140°
2026-04-29 10:02 42.41109 18.71749 19 ft 3 kts 140°
2026-04-29 10:03 42.41093 18.71767 19 ft 0 kts 140°
2026-04-29 10:03 42.41092 18.71769 19 ft 0 kts 126°
2026-04-29 10:03 42.41094 18.71780 19 ft 1 kts 77°
2026-04-29 10:03 42.41104 18.71802 19 ft 2 kts 48°
2026-04-29 10:04 42.41106 18.71805 19 ft 0 kts 48°